{"data":{"norad_id":63218,"epoch":"2026-05-25T03:20:45.976128Z","epoch_age_seconds":59188,"freshness":"FRESH","line1":"1 63218U 25052J   26145.13942102  .00016828  00000+0  52924-3 0  9993","line2":"2 63218  97.3907  41.1138 0002714 158.4259 201.7098 15.33030054 66567","mean_motion":15.33030054,"eccentricity":0.0002714,"inclination_deg":97.3907,"raan_deg":41.1138,"arg_perigee_deg":158.4259,"mean_anomaly_deg":201.7098,"bstar":0.00052924,"rev_number":6656,"period_min":93.931622295514,"perigee_km":464.92033035644,"apogee_km":468.63575024032,"semimajor_km":6844.9150402984,"source":"CELESTRAK","updated_at":"2026-05-25T13:38:23.297548Z"}}